Regional Weather Roundup
Issued by NWS

Home | Current Version | Previous Version | Graphics & Text | Print | Product List | Glossary On
Versions: 1 2 3 4 5 6 7 8 9 10 11 12 13 14 15 16 17 18 19 20 21 22 23 24 25 26 27 28 29 30 31 32 33 34 35 36 37 38 39 40 41 42 43 44 45 46 47 48 49 50
000
ASUS43 KOAX 290510
RWRNE

WEATHER ROUNDUP FOR NEBRASKA
NATIONAL WEATHER SERVICE OMAHA NE
1200 AM CDT FRI APR 29 2016

NOTES: SATELLITE DATA IS BEING USED TO AUGMENT CLOUD COVER ABOVE
       12000 FEET.
       "FAIR" INDICATES FEW OR NO CLOUDS BELOW 12,000 FEET WITH NO
       SIGNIFICANT WEATHER AND/OR OBSTRUCTIONS TO VISIBILITY.

  * THESE STATIONS DO NOT REPORT WEATHER SUCH AS RAIN...SNOW OR FOG.

NEZ001>004-019>022-054>056-290600-
NEBRASKA PANHANDLE

CITY           SKY/WX    TMP DP  RH WIND       PRES   REMARKS
SCOTTSBLUFF    CLOUDY    35  32  88 E5        30.08F WCI  31
ALLIANCE       CLOUDY    35  34  96 N5        30.09F WCI  31
CHADRON        CLOUDY    38  37  97 VRB6      30.12F WCI  33
KIMBALL        CLOUDY    34  33  96 NE5       30.07F WCI  30
SIDNEY         CLOUDY    36  33  89 NE10      30.08F WCI  28
$$

NEZ057>060-069>072-079>082-290600-
SOUTHWEST NEBRASKA

CITY           SKY/WX    TMP DP  RH WIND       PRES   REMARKS
NORTH PLATTE   CLOUDY    42  38  85 NE9       30.11S
IMPERIAL       CLOUDY    43  38  82 NE6       30.10S
LEXINGTON      CLOUDY    45  41  88 NE5       30.11S
MCCOOK         CLOUDY    44  40  85 NE7       30.10F
OGALLALA       CLOUDY    42  36  79 N8        30.10F
$$

NEZ005>010-023>029-035>040-094-290600-
NORTH CENTRAL NEBRASKA

CITY           SKY/WX    TMP DP  RH WIND       PRES   REMARKS
VALENTINE      CLOUDY    39  36  89 NW7       30.13R WCI  34
AINSWORTH      CLOUDY    39  38  97 NW6       30.12S FOG
BROKEN BOW     CLOUDY    42  39  89 N6        30.13R
O`NEILL        CLOUDY    40  39  93 CALM      30.13R
ORD            CLOUDY    42  38  85 N5        30.12R
THEDFORD       CLOUDY    40  37  88 N5        30.14R
$$

NEZ041-046>049-061>064-073>077-083>087-290600-
SOUTH CENTRAL NEBRASKA

CITY           SKY/WX    TMP DP  RH WIND       PRES   REMARKS
GRAND ISLAND   CLOUDY    44  40  85 N6        30.13S
AURORA         CLOUDY    44  41  89 N3        30.13R
HASTINGS       CLOUDY    45  40  82 NE8       30.13R
HEBRON         CLOUDY    48  42  81 NE8       30.13R
HOLDREGE       CLOUDY    45  41  88 NE5       30.11S
KEARNEY *      CLOUDY    45  39  81 NE6       30.12S
YORK           CLOUDY    45  39  81 N3        30.13S
$$

NEZ011>018-030>034-042>045-290600-
NORTHEAST NEBRASKA

CITY           SKY/WX    TMP DP  RH WIND       PRES   REMARKS
NORFOLK        CLOUDY    43  37  79 NW5       30.12R
ALBION         CLOUDY    42  38  86 N3        30.13S
BLAIR          CLOUDY    45  41  88 N3        30.11S
COLUMBUS *     CLOUDY    45  34  65 NW9       30.13F
FREMONT        CLOUDY    45  40  85 CALM      30.13S
TEKAMAH        CLOUDY    45  41  86 NW6       30.13R
WAYNE          CLOUDY    42  40  93 NW3       30.14R
$$

NEZ050>053-065>068-078-088>093-290600-
SOUTHEAST NEBRASKA

CITY           SKY/WX    TMP DP  RH WIND       PRES   REMARKS
LINCOLN        CLOUDY    48  40  73 N13       30.13S
OMAHA EPPLEY   CLOUDY    46  41  82 N5        30.11S
BEATRICE       CLOUDY    48  43  84 N6        30.12R
FALLS CITY     CLOUDY    50  43  77 N5        30.10R
NEBRASKA CITY  CLOUDY    47  42  81 N6        30.11S
PLATTSMOUTH    CLOUDY    46  42  86 NW3       30.11S
$$

NEZ044-045-051>053-067-290600-
OMAHA AREA

CITY           SKY/WX    TMP DP  RH WIND       PRES   REMARKS
OMAHA EPPLEY   CLOUDY    46  41  82 N5        30.11S
BLAIR          CLOUDY    45  41  88 N3        30.11S
FREMONT        CLOUDY    45  40  85 CALM      30.13S
MILLARD        CLOUDY    46  40  77 CALM      30.11F
OFFUTT AFB     CLOUDY    46  40  80 N7        30.10F
PLATTSMOUTH    CLOUDY    46  42  86 NW3       30.11S
WAHOO          CLOUDY    46  42  85 NW3       30.12S
$$



USA.gov is the U.S. government's official web portal to all federal, state and local government web resources and services.